Tracking 17149 objects as of 22-May-2015
HD Live streaming from Space Station

CZ-2D DEB


CZ-2D DEB is no longer on orbit
CZ-2D DEB is classified as:


NORAD ID: 29389
Int'l Code: 2006-035E
Perigee: N/A
Apogee: N/A
Inclination: N/A
Period: N/A
Semi major axis: N/A
RCS: N/A
Launch date: September 9, 2006
Source: People's Republic of China (PRC)
Decay date: 2006-09-12

Note: This is SATELLITE DEBRIS
Your satellite tracking list
Your tracking list is empty





NASA's NSSDC Master Catalog

Two Line Element Set (TLE):
1 29389U 06035E   06255.45678296  .11004133  74149-5  39964-2 0  9996
2 29389 062.6942 028.8614 0163804 147.7749 220.3019 15.99900263   496

Source of the keplerian elements: AFSPC

N2YO: 359